TimeEST,TemperatureF,Dew PointF,Humidity,Sea Level PressureIn,VisibilityMPH,Wind Direction,Wind SpeedMPH,Gust SpeedMPH,PrecipitationIn,Events,Conditions,WindDirDegrees,DateUTC
12:14 AM,12.2,1.4,62,30.21,10.0,South,13.8,-,N/A,,Clear,190,2014-01-04 05:14:00
12:34 AM,12.2,1.4,62,30.20,10.0,South,13.8,-,N/A,,Clear,190,2014-01-04 05:34:00
12:54 AM,12.0,1.0,61,30.19,10.0,South,13.8,-,N/A,,Clear,190,2014-01-04 05:54:00
1:14 AM,12.2,1.4,62,30.18,10.0,South,12.7,-,N/A,,Clear,190,2014-01-04 06:14:00
1:34 AM,12.2,1.4,62,30.17,10.0,South,16.1,-,N/A,,Clear,190,2014-01-04 06:34:00
1:54 AM,13.1,2.1,62,30.16,10.0,South,15.0,-,N/A,,Clear,190,2014-01-04 06:54:00
2:14 AM,14.0,3.2,62,30.15,10.0,South,13.8,-,N/A,,Clear,190,2014-01-04 07:14:00
2:34 AM,14.0,3.2,62,30.15,10.0,South,15.0,-,N/A,,Clear,190,2014-01-04 07:34:00
2:54 AM,15.1,4.1,62,30.14,10.0,South,15.0,-,N/A,,Clear,190,2014-01-04 07:54:00
3:14 AM,15.8,3.2,58,30.14,10.0,South,15.0,-,N/A,,Clear,190,2014-01-04 08:14:00
3:35 AM,15.8,3.2,58,30.13,10.0,South,16.1,-,N/A,,Clear,190,2014-01-04 08:35:00
3:54 AM,15.1,4.1,62,30.10,10.0,South,18.4,-,N/A,,Clear,190,2014-01-04 08:54:00
4:14 AM,15.8,3.2,58,30.11,10.0,South,13.8,-,N/A,,Clear,190,2014-01-04 09:14:00
4:34 AM,15.8,5.0,62,30.10,10.0,South,15.0,-,N/A,,Clear,190,2014-01-04 09:34:00
4:54 AM,16.2,5.0,62,30.09,10.0,South,17.3,-,N/A,,Clear,190,2014-01-04 09:54:00
5:14 AM,17.6,5.0,58,30.08,10.0,South,15.0,-,N/A,,Clear,190,2014-01-04 10:14:00
5:34 AM,17.6,6.8,63,30.07,10.0,South,16.1,-,N/A,,Clear,190,2014-01-04 10:34:00
5:54 AM,17.1,6.1,62,30.06,10.0,South,15.0,-,N/A,,Clear,190,2014-01-04 10:54:00
6:15 AM,17.6,6.8,63,30.05,10.0,SSW,17.3,-,N/A,,Clear,200,2014-01-04 11:15:00
6:34 AM,17.6,6.8,63,30.04,10.0,South,16.1,-,N/A,,Clear,190,2014-01-04 11:34:00
6:54 AM,18.1,7.2,62,30.05,10.0,SSW,15.0,-,N/A,,Clear,200,2014-01-04 11:54:00
7:14 AM,19.4,6.8,58,30.05,10.0,South,16.1,-,N/A,,Clear,190,2014-01-04 12:14:00
7:34 AM,19.4,6.8,58,30.04,10.0,SSW,17.3,-,N/A,,Clear,200,2014-01-04 12:34:00
7:55 AM,21.0,7.2,55,30.03,10.0,South,17.3,-,N/A,,Clear,190,2014-01-04 12:55:00
8:14 AM,21.2,6.8,54,30.03,10.0,SSW,16.1,-,N/A,,Clear,200,2014-01-04 13:14:00
8:34 AM,23.0,6.8,50,30.03,10.0,South,18.4,-,N/A,,Clear,190,2014-01-04 13:34:00
8:54 AM,24.1,8.1,51,30.02,10.0,SSW,18.4,-,N/A,,Clear,200,2014-01-04 13:54:00
9:14 AM,24.8,8.6,50,30.02,10.0,SSW,16.1,-,N/A,,Clear,200,2014-01-04 14:14:00
9:35 AM,24.8,8.6,50,30.03,10.0,SSW,16.1,-,N/A,,Clear,200,2014-01-04 14:35:00
9:54 AM,25.2,9.1,51,30.02,10.0,SSW,19.6,-,N/A,,Clear,200,2014-01-04 14:54:00
10:14 AM,26.6,10.4,51,30.01,10.0,SSW,18.4,-,N/A,,Clear,200,2014-01-04 15:14:00
10:34 AM,24.8,10.4,54,30.01,10.0,SSW,19.6,27.6,N/A,,Clear,200,2014-01-04 15:34:00
10:54 AM,26.1,11.1,53,30.01,10.0,SSW,17.3,-,N/A,,Clear,200,2014-01-04 15:54:00
11:14 AM,26.6,12.2,55,30.02,10.0,SSW,13.8,-,N/A,,Clear,210,2014-01-04 16:14:00
11:34 AM,26.6,12.2,55,30.01,10.0,SSW,17.3,-,N/A,,Clear,210,2014-01-04 16:34:00
11:54 AM,27.1,13.1,56,29.99,10.0,SSW,15.0,-,N/A,,Clear,210,2014-01-04 16:54:00
12:15 PM,26.6,12.2,55,29.99,10.0,SSW,17.3,-,N/A,,Clear,210,2014-01-04 17:15:00
12:34 PM,28.4,14.0,55,30.00,10.0,SSW,12.7,-,N/A,,Clear,210,2014-01-04 17:34:00
12:54 PM,28.0,14.0,56,29.99,10.0,SSW,12.7,-,N/A,,Clear,200,2014-01-04 17:54:00
1:14 PM,28.4,15.8,59,29.97,10.0,SSW,15.0,-,N/A,,Clear,210,2014-01-04 18:14:00
1:34 PM,30.2,15.8,55,29.97,10.0,SSW,12.7,-,N/A,,Clear,210,2014-01-04 18:34:00
1:54 PM,31.1,16.2,54,29.97,10.0,SSW,13.8,-,N/A,,Clear,200,2014-01-04 18:54:00
2:14 PM,32.0,17.6,55,29.96,10.0,SSW,13.8,-,N/A,,Clear,200,2014-01-04 19:14:00
2:34 PM,32.0,17.6,55,29.96,10.0,SSW,13.8,-,N/A,,Clear,200,2014-01-04 19:34:00
2:54 PM,32.9,18.1,55,29.96,10.0,SSW,12.7,-,N/A,,Clear,210,2014-01-04 19:54:00
3:14 PM,33.8,17.6,52,29.97,10.0,SSW,12.7,-,N/A,,Partly Cloudy,210,2014-01-04 20:14:00
3:34 PM,33.8,17.6,52,29.98,10.0,SSW,10.4,-,N/A,,Clear,200,2014-01-04 20:34:00
3:54 PM,34.0,18.1,52,29.99,10.0,SSW,13.8,-,N/A,,Clear,210,2014-01-04 20:54:00
4:14 PM,33.8,17.6,52,29.98,10.0,SSW,13.8,-,N/A,,Clear,210,2014-01-04 21:14:00
4:34 PM,32.0,19.4,60,29.99,10.0,SSW,10.4,-,N/A,,Mostly Cloudy,200,2014-01-04 21:34:00
4:54 PM,32.0,18.1,57,30.01,10.0,SSW,9.2,-,N/A,,Overcast,200,2014-01-04 21:54:00
5:15 PM,32.0,19.4,60,30.01,10.0,SSW,11.5,-,N/A,,Mostly Cloudy,200,2014-01-04 22:15:00
5:34 PM,32.0,19.4,60,30.00,10.0,SSW,10.4,-,N/A,,Mostly Cloudy,200,2014-01-04 22:34:00
5:54 PM,32.0,20.1,62,30.00,10.0,SSW,9.2,-,N/A,,Overcast,200,2014-01-04 22:54:00
6:15 PM,32.0,19.4,60,30.01,10.0,SSW,9.2,-,N/A,,Overcast,200,2014-01-04 23:15:00
6:34 PM,32.0,19.4,60,30.01,10.0,SSW,10.4,-,N/A,,Mostly Cloudy,200,2014-01-04 23:34:00
6:55 PM,32.0,19.4,60,30.01,10.0,SSW,9.2,-,N/A,,Mostly Cloudy,210,2014-01-04 23:55:00
7:14 PM,32.0,21.2,64,30.01,10.0,SSW,8.1,-,N/A,,Scattered Clouds,200,2014-01-05 00:14:00
7:34 PM,32.0,21.2,64,30.03,10.0,SSW,5.8,-,N/A,,Mostly Cloudy,210,2014-01-05 00:34:00
7:54 PM,32.9,21.0,62,30.04,10.0,SW,6.9,-,N/A,Rain,Light Rain,220,2014-01-05 00:54:00
8:14 PM,33.8,21.2,60,30.04,10.0,SW,8.1,-,N/A,,Overcast,220,2014-01-05 01:14:00
8:34 PM,33.8,21.2,60,30.03,10.0,SSW,8.1,-,N/A,Rain,Light Rain,200,2014-01-05 01:34:00
8:54 PM,34.0,22.1,62,30.02,10.0,SSW,6.9,-,N/A,,Overcast,210,2014-01-05 01:54:00
9:14 PM,33.8,23.0,65,30.03,10.0,SSW,6.9,-,N/A,,Overcast,210,2014-01-05 02:14:00
9:34 PM,33.8,21.2,60,30.04,10.0,SSW,6.9,-,N/A,Rain,Light Rain,210,2014-01-05 02:34:00
9:54 PM,33.8,21.2,60,30.04,10.0,SSW,6.9,-,N/A,,Overcast,210,2014-01-05 02:54:00
10:14 PM,33.8,23.0,65,30.03,10.0,SSW,6.9,-,N/A,Rain,Light Rain,210,2014-01-05 03:14:00
10:34 PM,33.8,21.2,60,30.03,10.0,SSW,6.9,-,N/A,,Overcast,210,2014-01-05 03:34:00
10:54 PM,33.8,23.0,65,30.02,10.0,SSW,6.9,-,N/A,Rain,Light Rain,200,2014-01-05 03:54:00
11:14 PM,33.8,23.0,65,30.03,10.0,SSW,5.8,-,N/A,,Overcast,200,2014-01-05 04:14:00
11:34 PM,33.8,23.0,65,30.03,10.0,SSW,5.8,-,N/A,,Overcast,200,2014-01-05 04:34:00
11:54 PM,34.0,23.0,64,30.03,10.0,SSW,5.8,-,N/A,,Overcast,200,2014-01-05 04:54:00